TimeCST,TemperatureF,Dew PointF,Humidity,Sea Level PressureIn,VisibilityMPH,Wind Direction,Wind SpeedMPH,Gust SpeedMPH,PrecipitationIn,Events,Conditions,WindDirDegrees,DateUTC
12:01 AM,33.8,26.6,75,30.24,10.0,East,5.8,-,N/A,,Overcast,80,2012-11-04 05:01:00
12:21 AM,33.8,26.6,75,30.24,10.0,Calm,Calm,-,N/A,,Overcast,0,2012-11-04 05:21:00
12:41 AM,33.8,26.6,75,30.24,10.0,ENE,3.5,-,N/A,,Overcast,70,2012-11-04 05:41:00
1:01 AM,33.8,26.6,75,30.25,10.0,Calm,Calm,-,N/A,,Overcast,0,2012-11-04 06:01:00
1:21 AM,32.0,26.6,80,30.25,10.0,Calm,Calm,-,N/A,,Overcast,0,2012-11-04 06:21:00
1:41 AM,32.0,26.6,80,30.25,10.0,Calm,Calm,-,N/A,,Overcast,0,2012-11-04 06:41:00
1:01 AM,32.0,26.6,80,30.24,10.0,East,3.5,-,N/A,,Overcast,90,2012-11-04 07:01:00
1:21 AM,32.0,26.6,80,30.24,10.0,Calm,Calm,-,N/A,,Overcast,0,2012-11-04 07:21:00
1:41 AM,32.0,26.6,80,30.24,10.0,ENE,3.5,-,N/A,,Overcast,60,2012-11-04 07:41:00
2:01 AM,32.0,26.6,80,30.24,10.0,ENE,3.5,-,N/A,,Overcast,70,2012-11-04 08:01:00
2:21 AM,32.0,26.6,80,30.24,10.0,Calm,Calm,-,N/A,,Mostly Cloudy,0,2012-11-04 08:21:00
2:41 AM,32.0,26.6,80,30.24,10.0,Calm,Calm,-,N/A,,Mostly Cloudy,0,2012-11-04 08:41:00
3:01 AM,30.2,24.8,80,30.24,10.0,Calm,Calm,-,N/A,,Overcast,0,2012-11-04 09:01:00
3:21 AM,32.0,26.6,80,30.24,10.0,Calm,Calm,-,N/A,,Overcast,0,2012-11-04 09:21:00
3:41 AM,32.0,26.6,80,30.24,10.0,Calm,Calm,-,N/A,,Overcast,0,2012-11-04 09:41:00
4:01 AM,32.0,26.6,80,30.24,10.0,Calm,Calm,-,N/A,,Overcast,0,2012-11-04 10:01:00
4:21 AM,32.0,26.6,80,30.24,10.0,Calm,Calm,-,N/A,,Overcast,0,2012-11-04 10:21:00
4:41 AM,32.0,26.6,80,30.24,10.0,Calm,Calm,-,N/A,,Overcast,0,2012-11-04 10:41:00
5:01 AM,32.0,26.6,80,30.25,10.0,Calm,Calm,-,N/A,,Overcast,0,2012-11-04 11:01:00
5:21 AM,32.0,26.6,80,30.25,10.0,NE,3.5,-,N/A,,Overcast,50,2012-11-04 11:21:00
5:41 AM,32.0,26.6,80,30.24,10.0,ENE,4.6,-,N/A,,Overcast,60,2012-11-04 11:41:00
6:01 AM,32.0,26.6,80,30.25,10.0,ENE,3.5,-,N/A,,Overcast,70,2012-11-04 12:01:00
6:21 AM,32.0,26.6,80,30.24,10.0,ENE,3.5,-,N/A,,Overcast,60,2012-11-04 12:21:00
6:41 AM,32.0,26.6,80,30.24,10.0,ENE,4.6,-,N/A,,Overcast,70,2012-11-04 12:41:00
7:01 AM,32.0,28.4,87,30.24,10.0,ENE,3.5,-,N/A,,Overcast,60,2012-11-04 13:01:00
7:21 AM,32.0,26.6,80,30.25,10.0,Calm,Calm,-,N/A,,Overcast,0,2012-11-04 13:21:00
7:41 AM,32.0,26.6,80,30.25,10.0,ENE,3.5,-,N/A,,Overcast,60,2012-11-04 13:41:00
8:01 AM,32.0,26.6,80,30.25,10.0,East,3.5,-,N/A,,Overcast,80,2012-11-04 14:01:00
8:21 AM,32.0,26.6,80,30.25,10.0,ENE,5.8,-,N/A,,Overcast,70,2012-11-04 14:21:00
8:41 AM,32.0,26.6,80,30.25,10.0,ENE,3.5,-,N/A,,Overcast,60,2012-11-04 14:41:00
9:01 AM,32.0,26.6,80,30.24,10.0,East,3.5,-,N/A,,Overcast,90,2012-11-04 15:01:00
9:21 AM,33.8,26.6,75,30.24,10.0,NE,4.6,-,N/A,,Overcast,50,2012-11-04 15:21:00
9:41 AM,33.8,26.6,75,30.24,10.0,ENE,5.8,-,N/A,,Overcast,70,2012-11-04 15:41:00
10:01 AM,33.8,26.6,75,30.23,10.0,ENE,3.5,-,N/A,,Overcast,60,2012-11-04 16:01:00
10:21 AM,35.6,26.6,70,30.23,10.0,ENE,4.6,-,N/A,,Overcast,60,2012-11-04 16:21:00
10:41 AM,35.6,26.6,70,30.23,10.0,East,6.9,-,N/A,,Overcast,90,2012-11-04 16:41:00
11:01 AM,37.4,26.6,65,30.22,10.0,East,5.8,-,N/A,,Overcast,100,2012-11-04 17:01:00
11:21 AM,37.4,26.6,65,30.22,10.0,ENE,4.6,-,N/A,,Overcast,70,2012-11-04 17:21:00
11:41 AM,37.4,26.6,65,30.22,10.0,East,3.5,-,N/A,,Overcast,90,2012-11-04 17:41:00
12:01 PM,39.2,26.6,61,30.22,10.0,ESE,5.8,-,N/A,,Mostly Cloudy,110,2012-11-04 18:01:00
12:21 PM,39.2,26.6,61,30.21,10.0,East,3.5,-,N/A,,Overcast,90,2012-11-04 18:21:00
12:41 PM,41.0,26.6,57,30.19,10.0,East,4.6,-,N/A,,Overcast,80,2012-11-04 18:41:00
1:01 PM,42.8,26.6,53,30.19,10.0,NE,5.8,-,N/A,,Overcast,50,2012-11-04 19:01:00
1:21 PM,44.6,28.4,53,30.18,10.0,East,5.8,-,N/A,,Overcast,80,2012-11-04 19:21:00
1:41 PM,44.6,28.4,53,30.18,10.0,ESE,6.9,-,N/A,,Overcast,110,2012-11-04 19:41:00
2:01 PM,44.6,28.4,53,30.18,10.0,ESE,6.9,-,N/A,,Overcast,120,2012-11-04 20:01:00
2:21 PM,42.8,26.6,53,30.18,10.0,East,5.8,-,N/A,,Mostly Cloudy,90,2012-11-04 20:21:00
2:41 PM,42.8,26.6,53,30.17,10.0,ESE,4.6,-,N/A,,Mostly Cloudy,110,2012-11-04 20:41:00
3:01 PM,42.8,28.4,57,30.17,10.0,ESE,5.8,-,N/A,,Overcast,110,2012-11-04 21:01:00
3:21 PM,42.8,26.6,53,30.17,10.0,East,4.6,-,N/A,,Overcast,90,2012-11-04 21:21:00
3:41 PM,42.8,26.6,53,30.17,10.0,East,3.5,-,N/A,,Overcast,80,2012-11-04 21:41:00
4:01 PM,42.8,28.4,57,30.17,10.0,East,3.5,-,N/A,,Overcast,80,2012-11-04 22:01:00
4:21 PM,42.8,28.4,57,30.17,10.0,Calm,Calm,-,N/A,,Overcast,0,2012-11-04 22:21:00
4:41 PM,41.0,26.6,57,30.17,10.0,East,4.6,-,N/A,,Overcast,80,2012-11-04 22:41:00
5:01 PM,41.0,26.6,57,30.17,10.0,NE,3.5,-,N/A,,Overcast,50,2012-11-04 23:01:00
5:21 PM,39.2,24.8,56,30.17,10.0,ENE,3.5,-,N/A,,Overcast,60,2012-11-04 23:21:00
5:41 PM,39.2,24.8,56,30.18,10.0,ENE,3.5,-,N/A,,Overcast,60,2012-11-04 23:41:00
6:01 PM,39.2,23.0,52,30.18,10.0,ENE,3.5,-,N/A,,Overcast,70,2012-11-05 00:01:00
6:21 PM,39.2,23.0,52,30.18,10.0,ENE,3.5,-,N/A,,Overcast,70,2012-11-05 00:21:00
6:41 PM,39.2,23.0,52,30.19,10.0,East,4.6,-,N/A,,Overcast,80,2012-11-05 00:41:00
7:01 PM,39.2,23.0,52,30.19,10.0,ENE,5.8,-,N/A,,Overcast,70,2012-11-05 01:01:00
7:21 PM,37.4,23.0,56,30.19,10.0,NE,5.8,-,N/A,,Overcast,40,2012-11-05 01:21:00
7:41 PM,35.6,24.8,65,30.20,10.0,NE,4.6,-,N/A,,Overcast,50,2012-11-05 01:41:00
8:01 PM,35.6,24.8,65,30.20,10.0,ENE,4.6,-,N/A,,Overcast,60,2012-11-05 02:01:00
8:21 PM,35.6,26.6,70,30.20,10.0,NE,5.8,-,N/A,,Overcast,50,2012-11-05 02:21:00
8:41 PM,35.6,26.6,70,30.20,10.0,ENE,6.9,-,N/A,,Overcast,60,2012-11-05 02:41:00
9:01 PM,33.8,24.8,70,30.20,10.0,ENE,5.8,-,N/A,,Overcast,60,2012-11-05 03:01:00
9:21 PM,33.8,24.8,70,30.20,10.0,ENE,8.1,-,N/A,,Overcast,70,2012-11-05 03:21:00
9:41 PM,33.8,24.8,70,30.20,10.0,ENE,6.9,-,N/A,,Overcast,70,2012-11-05 03:41:00
10:01 PM,33.8,24.8,70,30.20,10.0,ENE,3.5,-,N/A,,Overcast,60,2012-11-05 04:01:00
10:21 PM,33.8,24.8,70,30.20,10.0,ENE,4.6,-,N/A,,Overcast,70,2012-11-05 04:21:00
10:41 PM,33.8,24.8,70,30.21,10.0,ENE,8.1,-,N/A,,Overcast,70,2012-11-05 04:41:00